VINASAT-1

Last updated on Sat Apr 04 2026 00:02:49 GMT+0000 (Coordinated Universal Time)

1 32767U 08018A 26093.56294640 .00000000 00000+0 00000+0 0 9996 2 32767 0.0141 224.8282 0002597 186.7328 114.9361 1.00270448 65843
UTC large
Height (km)
Speed (km/s)
/
Latitude / Longitude
Inclination (degrees)
Orbital Period (minutes)
Azimuth
Elevation
Range (km)
Doppler Factor

Next 0 passes for location: London (51.5072 / 0.1276)

Sorry there are no passes over London.